QZS-2 (MICHIBIKI-2)

Last updated on Wed Jul 02 2025 00:02:47 GMT+0000 (Coordinated Universal Time)

1 42738U 17028A 25182.46793522 -.00000173 00000+0 00000+0 0 9998 2 42738 39.9694 248.2796 0758746 269.3679 72.4466 1.00280648 4106
UTC large
Height (km)
Speed (km/s)
/
Latitude / Longitude
Inclination (degrees)
Orbital Period (minutes)
Azimuth
Elevation
Range (km)
Doppler Factor

Next 0 passes for location: London (51.5072 / 0.1276)

Sorry there are no passes over London.